Time,TemperatureF,DewpointF,PressureIn,WindDirection,WindDirectionDegrees,WindSpeedMPH,WindSpeedGustMPH,Humidity,HourlyPrecipIn,Conditions,Clouds,dailyrainin,SolarRadiationWatts/m^2,SoftwareType,DateUTC
2013-08-21 00:04:00,69.0,64.0,-100.00,North,350,0.0,4.0,85,0.00,,,0.00,0.000000,,2013-08-21 04:04:00,
2013-08-21 00:13:00,67.0,65.0,-100.00,NNW,341,2.0,3.0,93,0.00,,,0.00,0.000000,,2013-08-21 04:13:00,
2013-08-21 00:44:00,67.0,65.0,-100.00,NNW,341,2.0,3.0,93,0.00,,,0.00,0.000000,,2013-08-21 04:44:00,
2013-08-21 00:54:00,67.0,65.0,-100.00,NNW,341,2.0,3.0,93,0.00,,,0.00,0.000000,,2013-08-21 04:54:00,
2013-08-21 01:02:00,67.0,65.0,-100.00,NNW,341,2.0,3.0,93,0.00,,,0.00,0.000000,,2013-08-21 05:02:00,
2013-08-21 01:43:00,65.0,64.0,-100.00,North,354,2.0,3.0,95,0.00,,,0.00,0.000000,,2013-08-21 05:43:00,
2013-08-21 01:52:00,65.0,64.0,-100.00,North,354,2.0,3.0,95,0.00,,,0.00,0.000000,,2013-08-21 05:52:00,
2013-08-21 02:02:00,65.0,64.0,-100.00,North,354,2.0,3.0,95,0.00,,,0.00,0.000000,,2013-08-21 06:02:00,
2013-08-21 02:12:00,65.0,64.0,-100.00,North,354,2.0,3.0,95,0.00,,,0.00,0.000000,,2013-08-21 06:12:00,
2013-08-21 02:42:00,65.0,63.0,-100.00,NE,48,1.0,3.0,94,0.00,,,0.00,0.000000,,2013-08-21 06:42:00,
2013-08-21 02:52:00,65.0,63.0,-100.00,NE,48,1.0,3.0,94,0.00,,,0.00,0.000000,,2013-08-21 06:52:00,
2013-08-21 03:02:00,65.0,63.0,-100.00,NE,48,1.0,3.0,94,0.00,,,0.00,0.000000,,2013-08-21 07:02:00,
2013-08-21 03:11:00,65.0,63.0,-100.00,NE,48,1.0,3.0,94,0.00,,,0.00,0.000000,,2013-08-21 07:11:00,
2013-08-21 03:42:00,65.0,64.0,-100.00,SSE,151,1.0,4.0,97,0.00,,,0.00,0.000000,,2013-08-21 07:42:00,
2013-08-21 03:53:00,65.0,64.0,-100.00,SSE,151,1.0,4.0,97,0.00,,,0.00,0.000000,,2013-08-21 07:53:00,
2013-08-21 04:03:00,65.0,64.0,-100.00,SSE,151,1.0,4.0,97,0.00,,,0.00,0.000000,,2013-08-21 08:03:00,
2013-08-21 04:12:00,65.0,64.0,-100.00,SSE,151,1.0,4.0,97,0.00,,,0.00,0.000000,,2013-08-21 08:12:00,
2013-08-21 04:43:00,63.0,62.0,-100.00,NW,319,1.0,3.0,97,0.00,,,0.00,0.000000,,2013-08-21 08:43:00,
2013-08-21 04:53:00,63.0,62.0,-100.00,NW,319,1.0,3.0,97,0.00,,,0.00,0.000000,,2013-08-21 08:53:00,
2013-08-21 05:01:00,63.0,62.0,-100.00,NW,319,1.0,3.0,97,0.00,,,0.00,0.000000,,2013-08-21 09:01:00,
2013-08-21 05:11:00,63.0,62.0,-100.00,NW,319,1.0,3.0,97,0.00,,,0.00,0.000000,,2013-08-21 09:11:00,
2013-08-21 05:13:00,63.0,62.0,-100.00,SW,222,1.0,2.0,98,0.00,,,0.00,0.000000,,2013-08-21 09:13:00,
2013-08-21 05:43:00,63.0,62.0,-100.00,SW,222,1.0,2.0,98,0.00,,,0.00,0.000000,,2013-08-21 09:43:00,
2013-08-21 05:54:00,63.0,62.0,-100.00,SW,222,1.0,2.0,98,0.00,,,0.00,0.000000,,2013-08-21 09:54:00,
2013-08-21 06:03:00,63.0,62.0,-100.00,SW,222,1.0,2.0,98,0.00,,,0.00,0.000000,,2013-08-21 10:03:00,
2013-08-21 06:43:00,62.0,61.0,-100.00,North,3,1.0,4.0,97,0.00,,,0.00,0.000000,,2013-08-21 10:43:00,
2013-08-21 06:53:00,62.0,61.0,-100.00,North,3,1.0,4.0,97,0.00,,,0.00,0.000000,,2013-08-21 10:53:00,
2013-08-21 07:03:00,62.0,61.0,-100.00,North,3,1.0,4.0,97,0.00,,,0.00,0.000000,,2013-08-21 11:03:00,
2013-08-21 07:12:00,62.0,61.0,-100.00,North,3,1.0,4.0,97,0.00,,,0.00,0.000000,,2013-08-21 11:12:00,
2013-08-21 07:42:00,62.0,62.0,-100.00,North,9,2.0,2.0,99,0.00,,,0.00,12.000000,,2013-08-21 11:42:00,
2013-08-21 07:53:00,62.0,62.0,-100.00,North,9,2.0,2.0,99,0.00,,,0.00,12.000000,,2013-08-21 11:53:00,
2013-08-21 08:01:00,62.0,62.0,-100.00,North,9,2.0,2.0,99,0.00,,,0.00,12.000000,,2013-08-21 12:01:00,
2013-08-21 08:12:00,62.0,62.0,-100.00,North,9,2.0,2.0,99,0.00,,,0.00,12.000000,,2013-08-21 12:12:00,
2013-08-21 08:42:00,69.0,66.0,-100.00,West,275,1.0,4.0,91,0.00,,,0.00,125.000000,,2013-08-21 12:42:00,
2013-08-21 08:52:00,69.0,66.0,-100.00,West,275,1.0,4.0,91,0.00,,,0.00,125.000000,,2013-08-21 12:52:00,
2013-08-21 09:02:00,69.0,66.0,-100.00,West,275,1.0,4.0,91,0.00,,,0.00,125.000000,,2013-08-21 13:02:00,
2013-08-21 09:12:00,69.0,66.0,-100.00,West,275,1.0,4.0,91,0.00,,,0.00,125.000000,,2013-08-21 13:12:00,
2013-08-21 09:42:00,74.0,67.0,-100.00,SSW,199,2.0,5.0,79,0.00,,,0.00,306.000000,,2013-08-21 13:42:00,
2013-08-21 09:52:00,74.0,67.0,-100.00,SSW,199,2.0,5.0,79,0.00,,,0.00,306.000000,,2013-08-21 13:52:00,
2013-08-21 10:02:00,74.0,67.0,-100.00,SSW,199,2.0,5.0,79,0.00,,,0.00,306.000000,,2013-08-21 14:02:00,
2013-08-21 10:11:00,74.0,67.0,-100.00,SSW,199,2.0,5.0,79,0.00,,,0.00,306.000000,,2013-08-21 14:11:00,
2013-08-21 10:42:00,79.0,67.0,-100.00,East,86,3.0,5.0,66,0.00,,,-99.99,483.000000,,2013-08-21 14:42:00,
2013-08-21 10:52:00,79.0,67.0,-100.00,East,86,3.0,5.0,66,0.00,,,-99.99,483.000000,,2013-08-21 14:52:00,
2013-08-21 11:01:00,79.0,67.0,-100.00,East,86,3.0,5.0,66,0.00,,,-99.99,483.000000,,2013-08-21 15:01:00,
2013-08-21 11:11:00,79.0,67.0,-100.00,East,86,3.0,5.0,66,0.00,,,-99.99,483.000000,,2013-08-21 15:11:00,
2013-08-21 11:13:00,82.0,69.0,-100.00,West,277,3.0,6.0,64,0.00,,,0.00,624.000000,,2013-08-21 15:13:00,
2013-08-21 11:43:00,82.0,69.0,-100.00,West,277,3.0,6.0,64,0.00,,,0.00,624.000000,,2013-08-21 15:43:00,
2013-08-21 11:55:00,82.0,69.0,-100.00,West,277,3.0,6.0,64,0.00,,,0.00,624.000000,,2013-08-21 15:55:00,
2013-08-21 12:04:00,82.0,69.0,-100.00,West,277,3.0,6.0,64,0.00,,,0.00,624.000000,,2013-08-21 16:04:00,
2013-08-21 12:13:00,84.0,70.0,-100.00,SSW,203,3.0,5.0,63,0.00,,,0.00,653.000000,,2013-08-21 16:13:00,
2013-08-21 12:43:00,84.0,70.0,-100.00,SSW,203,3.0,5.0,63,0.00,,,0.00,653.000000,,2013-08-21 16:43:00,
2013-08-21 12:53:00,84.0,70.0,-100.00,SSW,203,3.0,5.0,63,0.00,,,0.00,653.000000,,2013-08-21 16:53:00,
2013-08-21 13:04:00,84.0,70.0,-100.00,SSW,203,3.0,5.0,63,0.00,,,0.00,653.000000,,2013-08-21 17:04:00,
2013-08-21 13:43:00,87.0,71.0,-100.00,SSW,196,3.0,8.0,59,0.00,,,0.00,775.000000,,2013-08-21 17:43:00,
2013-08-21 13:53:00,87.0,71.0,-100.00,SSW,196,3.0,8.0,59,0.00,,,0.00,775.000000,,2013-08-21 17:53:00,
2013-08-21 14:03:00,87.0,71.0,-100.00,SSW,196,3.0,8.0,59,0.00,,,0.00,775.000000,,2013-08-21 18:03:00,
2013-08-21 14:12:00,87.0,71.0,-100.00,SSW,196,3.0,8.0,59,0.00,,,0.00,775.000000,,2013-08-21 18:12:00,
2013-08-21 14:42:00,89.0,72.0,-100.00,SE,145,5.0,10.0,57,0.00,,,0.00,788.000000,,2013-08-21 18:42:00,
2013-08-21 14:52:00,89.0,72.0,-100.00,SE,145,5.0,10.0,57,0.00,,,0.00,788.000000,,2013-08-21 18:52:00,
2013-08-21 15:01:00,89.0,72.0,-100.00,SE,145,5.0,10.0,57,0.00,,,0.00,788.000000,,2013-08-21 19:01:00,
2013-08-21 15:12:00,89.0,72.0,-100.00,SE,145,5.0,10.0,57,0.00,,,0.00,788.000000,,2013-08-21 19:12:00,
2013-08-21 15:42:00,86.0,68.0,-100.00,SSE,162,5.0,9.0,56,0.00,,,0.00,468.000000,,2013-08-21 19:42:00,
2013-08-21 15:53:00,86.0,68.0,-100.00,SSE,162,5.0,9.0,56,0.00,,,0.00,468.000000,,2013-08-21 19:53:00,
2013-08-21 16:03:00,86.0,68.0,-100.00,SSE,162,5.0,9.0,56,0.00,,,0.00,468.000000,,2013-08-21 20:03:00,
2013-08-21 16:11:00,86.0,68.0,-100.00,SSE,162,5.0,9.0,56,0.00,,,0.00,468.000000,,2013-08-21 20:11:00,
2013-08-21 16:43:00,85.0,69.0,-100.00,SE,142,5.0,9.0,58,0.00,,,0.00,290.000000,,2013-08-21 20:43:00,
2013-08-21 16:52:00,85.0,69.0,-100.00,SE,142,5.0,9.0,58,0.00,,,0.00,290.000000,,2013-08-21 20:52:00,
2013-08-21 17:02:00,85.0,69.0,-100.00,SE,142,5.0,9.0,58,0.00,,,0.00,290.000000,,2013-08-21 21:02:00,
2013-08-21 17:12:00,85.0,69.0,-100.00,SE,142,5.0,9.0,58,0.00,,,0.00,290.000000,,2013-08-21 21:12:00,
2013-08-21 17:13:00,84.0,69.0,-100.00,SSE,153,4.0,8.0,61,0.00,,,0.00,185.000000,,2013-08-21 21:13:00,
2013-08-21 17:45:00,84.0,69.0,-100.00,SSE,153,4.0,8.0,61,0.00,,,0.00,185.000000,,2013-08-21 21:45:00,
2013-08-21 17:55:00,84.0,69.0,-100.00,SSE,153,4.0,8.0,61,0.00,,,0.00,185.000000,,2013-08-21 21:55:00,
2013-08-21 18:04:00,84.0,69.0,-100.00,SSE,153,4.0,8.0,61,0.00,,,0.00,185.000000,,2013-08-21 22:04:00,
2013-08-21 18:13:00,82.0,70.0,-100.00,SSE,166,4.0,6.0,67,0.00,,,0.00,76.000000,,2013-08-21 22:13:00,
2013-08-21 18:44:00,82.0,70.0,-100.00,SSE,166,4.0,6.0,67,0.00,,,0.00,76.000000,,2013-08-21 22:44:00,
2013-08-21 18:53:00,82.0,70.0,-100.00,SSE,166,4.0,6.0,67,0.00,,,0.00,76.000000,,2013-08-21 22:53:00,
2013-08-21 19:04:00,82.0,70.0,-100.00,SSE,166,4.0,6.0,67,0.00,,,0.00,76.000000,,2013-08-21 23:04:00,
2013-08-21 19:43:00,80.0,71.0,-100.00,SSE,156,3.0,6.0,73,0.00,,,0.00,28.000000,,2013-08-21 23:43:00,
2013-08-21 19:53:00,80.0,71.0,-100.00,SSE,156,3.0,6.0,73,0.00,,,0.00,28.000000,,2013-08-21 23:53:00,
2013-08-21 20:02:00,80.0,71.0,-100.00,SSE,156,3.0,6.0,73,0.00,,,0.00,28.000000,,2013-08-22 00:02:00,
2013-08-21 20:12:00,80.0,71.0,-100.00,SSE,156,3.0,6.0,73,0.00,,,0.00,28.000000,,2013-08-22 00:12:00,
2013-08-21 20:42:00,78.0,70.0,-100.00,South,180,3.0,6.0,76,0.00,,,0.00,9.000000,,2013-08-22 00:42:00,
2013-08-21 20:52:00,78.0,70.0,-100.00,South,180,3.0,6.0,76,0.00,,,0.00,9.000000,,2013-08-22 00:52:00,
2013-08-21 21:02:00,78.0,70.0,-100.00,South,180,3.0,6.0,76,0.00,,,0.00,9.000000,,2013-08-22 01:02:00,
2013-08-21 21:12:00,78.0,70.0,-100.00,South,180,3.0,6.0,76,0.00,,,0.00,9.000000,,2013-08-22 01:12:00,
2013-08-21 21:42:00,76.0,70.0,-100.00,SSW,210,8.0,13.0,83,0.00,,,0.00,0.000000,,2013-08-22 01:42:00,
2013-08-21 21:52:00,76.0,70.0,-100.00,SSW,210,8.0,13.0,83,0.00,,,0.00,0.000000,,2013-08-22 01:52:00,
2013-08-21 22:03:00,76.0,70.0,-100.00,SSW,210,8.0,13.0,83,0.00,,,0.00,0.000000,,2013-08-22 02:03:00,
2013-08-21 22:12:00,76.0,70.0,-100.00,SSW,210,8.0,13.0,83,0.00,,,0.00,0.000000,,2013-08-22 02:12:00,
2013-08-21 22:52:00,71.0,68.0,-100.00,South,190,6.0,13.0,91,0.01,,,0.01,0.000000,,2013-08-22 02:52:00,
2013-08-21 23:02:00,71.0,68.0,-100.00,South,190,6.0,13.0,91,0.01,,,0.01,0.000000,,2013-08-22 03:02:00,
2013-08-21 23:12:00,71.0,68.0,-100.00,South,190,6.0,13.0,91,0.01,,,0.01,0.000000,,2013-08-22 03:12:00,
2013-08-21 23:13:00,69.0,66.0,-100.00,South,176,5.0,9.0,91,0.00,,,0.01,0.000000,,2013-08-22 03:13:00,
2013-08-21 23:45:00,69.0,66.0,-100.00,South,176,5.0,9.0,91,0.00,,,0.01,0.000000,,2013-08-22 03:45:00,
2013-08-21 23:54:00,69.0,66.0,-100.00,South,176,5.0,9.0,91,0.00,,,0.01,0.000000,,2013-08-22 03:54:00,